Find Starlink 11197

NORAD ID: 60186 Int'l Des: 2024-124 Owner: SPXS Country: US Constellation: starlink operational
LEOCIRCULAR

当前视图

正在加载3D地球...

About Starlink 11197

Starlink 11197 (NORAD 60186) is a starlink constellation satellite (v2 mini d2c) launched Jul 3, 2024 by SPXS of US. It operates in LEO, CIRCULAR orbit with a mass of 960.00 kg.

关于 Starlink 11197

正在加载描述...

即将过境

Passes for default location (London). Set your location on the main map for personalized predictions.

高度历史

Loading altitude history...

两行轨道根数

1 60186U 24124D 26190.52820719 -.00008337 00000-0 -64087-4 0 9998
2 60186 53.1567 280.3839 0000560 112.3960 247.7117 15.69688464115672
Epoch: Jul 9, 2026 • Age: 28 hours

当前状态

高度 364.4 km
远地点 / 近地点 N/A
速度 7.69 km/s
星下点 -16.97°S, 76.47°W
发射日期 Jul 3, 2024
运行时间 2 years
类型 internet

技术详情

分类 Payload
质量 960.00 kg
干质量 910.00 kg
总质量 960.00 kg
长度 0.30 m
直径 4.10 m
跨度 29.00 m
形状 Box + pan
制造商 SPXS
平台类型 Starlink V2MD
阶段状态 In Orbit
所有者/国家 SPXS/US

Most Searched